Tracking 19192 objects as of 22-Jun-2018
HD Live streaming from Space Station
objects crossing your sky now

FENGYUN 1C DEB

Track FENGYUN 1C DEB now!
10-day predictions


NORAD ID: 38163
Int'l Code: 1999-025ERL
Perigee: 838.8 km
Apogee: 958.9 km
Inclination: 99.2 °
Period: 102.8 minutes
Semi major axis: 7269 km
RCS: 0.003 m2 (small)
Launch date: May 10, 1999
Source: People's Republic of China (PRC)
Launch site: Taiyaun Space Center, China (TSC)

Note: This is SATELLITE DEBRIS
aabbcc
Your satellite tracking list
Your tracking list is empty




NASA's NSSDC Master Catalog

Two Line Element Set (TLE):
1 38163U 99025ERL 18166.17078787 -.00000062 +00000-0 -10233-4 0  9996
2 38163 099.2280 140.1356 0082551 220.2926 139.2102 14.00605407483591
Source of the keplerian elements: AFSPC